When you browse on this site, cookies collect data to enhance your experience and personalize the content and advertising you see.
Visit our Privacy Policy to learn more. By continuing to use the site, you agree to this use of cookies and data.

Hourly Weather Rengo

Today, 8 August, Saturday

Time Temperature Precipitation Wind Pressure Humidity
00:00 +11°C° 0 mm 1 mps 736 mmHg 74%
01:00 +11°C° 0 mm 1 mps 737 mmHg 73%
02:00 +11°C° 0 mm 1 mps 736 mmHg 72%
03:00 +11°C° 0 mm 1 mps 736 mmHg 71%
04:00 +11°C° 0 mm 1 mps 736 mmHg 69%
05:00 +12°C° 0 mm 1 mps 736 mmHg 67%
06:00 +12°C° 0 mm 1 mps 736 mmHg 64%
07:00 +12°C° 0 mm 1 mps 737 mmHg 62%
08:00 +14°C° 0 mm 1 mps 737 mmHg 61%
09:00 +16°C° 0 mm 1 mps 736 mmHg 61%
10:00 +18°C° 0 mm 1 mps 736 mmHg 60%
11:00 +19°C° 0 mm 1 mps 736 mmHg 59%
12:00 +19°C° 0 mm 2 mps 736 mmHg 58%
13:00 +20°C° 0 mm 2 mps 736 mmHg 57%
14:00 +20°C° 0 mm 1 mps 736 mmHg 62%
15:00 +19°C° 0 mm 1 mps 735 mmHg 67%
16:00 +17°C° 0 mm 0 mps 735 mmHg 73%
17:00 +18°C° 0 mm 1 mps 735 mmHg 72%
18:00 +15°C° 0 mm 1 mps 735 mmHg 71%
19:00 +14°C° 0 mm 1 mps 736 mmHg 70%
20:00 +14°C° 0 mm 1 mps 736 mmHg 69%
21:00 +14°C° 0 mm 1 mps 735 mmHg 68%
22:00 +14°C° 0 mm 1 mps 735 mmHg 67%
23:00 +14°C° 0 mm 1 mps 735 mmHg 68%

Tomorrow, 9 August, Sunday

Time Temperature Precipitation Wind Pressure Humidity
00:00 +13°C° 0 mm 1 mps 735 mmHg 68%
01:00 +13°C° 0 mm 1 mps 735 mmHg 69%
02:00 +13°C° 0 mm 1 mps 735 mmHg 68%
03:00 +13°C° 0 mm 1 mps 734 mmHg 68%
04:00 +13°C° 0 mm 1 mps 734 mmHg 68%
05:00 +13°C° 0 mm 1 mps 734 mmHg 68%
06:00 +12°C° 0 mm 0 mps 735 mmHg 69%
07:00 +12°C° 0 mm 0 mps 735 mmHg 70%
08:00 +14°C° 0 mm 1 mps 735 mmHg 69%
09:00 +15°C° 0 mm 1 mps 735 mmHg 68%
10:00 +16°C° 0 mm 1 mps 735 mmHg 66%
11:00 +17°C° 0 mm 2 mps 735 mmHg 64%
12:00 +17°C° 0 mm 2 mps 735 mmHg 62%
13:00 +18°C° 0 mm 2 mps 735 mmHg 60%
14:00 +17°C° 0 mm 2 mps 735 mmHg 64%
15:00 +17°C° 0 mm 2 mps 735 mmHg 67%
16:00 +16°C° 0 mm 1 mps 735 mmHg 71%
17:00 +15°C° 0 mm 1 mps 736 mmHg 76%
18:00 +13°C° 0 mm 1 mps 736 mmHg 82%
19:00 +10°C° 0 mm 0 mps 737 mmHg 87%
20:00 +10°C° 0 mm 0 mps 737 mmHg 88%
21:00 +10°C° 0 mm 0 mps 737 mmHg 89%
22:00 +9°C° 0 mm 0 mps 738 mmHg 89%
23:00 +9°C° 0 mm 0 mps 738 mmHg 89%

Day after tomorrow, 10 August, Monday

Time Temperature Precipitation Wind Pressure Humidity
00:00 +9°C° 0 mm 0 mps 738 mmHg 90%
01:00 +9°C° 0 mm 0 mps 738 mmHg 90%
02:00 +10°C° 0 mm 1 mps 738 mmHg 90%
03:00 +10°C° 0 mm 1 mps 737 mmHg 90%
04:00 +10°C° 0 mm 1 mps 737 mmHg 90%
05:00 +10°C° 0 mm 1 mps 738 mmHg 88%
06:00 +10°C° 0 mm 1 mps 738 mmHg 87%
07:00 +10°C° 0 mm 1 mps 738 mmHg 85%
08:00 +10°C° 0 mm 2 mps 738 mmHg 81%
09:00 +12°C° 0 mm 2 mps 738 mmHg 76%
10:00 +13°C° 0 mm 2 mps 738 mmHg 72%
11:00 +14°C° 0 mm 2 mps 737 mmHg 69%
12:00 +14°C° 0 mm 2 mps 737 mmHg 67%
13:00 +15°C° 0 mm 2 mps 737 mmHg 64%
14:00 +15°C° 0 mm 2 mps 736 mmHg 68%
15:00 +14°C° 0 mm 2 mps 736 mmHg 73%
16:00 +13°C° 0 mm 2 mps 736 mmHg 77%
17:00 +12°C° 0 mm 2 mps 736 mmHg 78%
18:00 +10°C° 0 mm 2 mps 737 mmHg 80%
19:00 +9°C° 0 mm 2 mps 737 mmHg 82%
20:00 +8°C° 0 mm 2 mps 737 mmHg 79%
21:00 +8°C° 0 mm 2 mps 737 mmHg 76%
22:00 +7°C° 0 mm 2 mps 737 mmHg 73%
23:00 +7°C° 0 mm 2 mps 736 mmHg 71%

11 August, Tuesday

Time Temperature Precipitation Wind Pressure Humidity
00:00 +6°C° 0 mm 2 mps 736 mmHg 70%
01:00 +6°C° 0 mm 2 mps 736 mmHg 69%
02:00 +6°C° 0 mm 1 mps 735 mmHg 68%
03:00 +6°C° 0 mm 1 mps 735 mmHg 68%
04:00 +6°C° 0 mm 1 mps 734 mmHg 67%
05:00 +6°C° 0 mm 1 mps 734 mmHg 67%
06:00 +5°C° 0 mm 1 mps 734 mmHg 67%
07:00 +5°C° 0 mm 1 mps 734 mmHg 67%
08:00 +7°C° 0 mm 1 mps 733 mmHg 62%
09:00 +8°C° 0 mm 2 mps 733 mmHg 57%
10:00 +10°C° 0 mm 2 mps 733 mmHg 53%
11:00 +12°C° 0 mm 2 mps 733 mmHg 53%
12:00 +13°C° 0 mm 2 mps 732 mmHg 53%
13:00 +14°C° 0 mm 2 mps 732 mmHg 53%
14:00 +14°C° 0 mm 2 mps 732 mmHg 58%
15:00 +13°C° 0 mm 2 mps 732 mmHg 63%
16:00 +12°C° 0 mm 2 mps 731 mmHg 68%
17:00 +11°C° 0 mm 1 mps 732 mmHg 71%
18:00 +9°C° 0 mm 1 mps 732 mmHg 75%
19:00 +8°C° 0 mm 1 mps 733 mmHg 78%
20:00 +8°C° 0 mm 1 mps 733 mmHg 77%
21:00 +7°C° 0 mm 1 mps 733 mmHg 76%
22:00 +7°C° 0 mm 1 mps 733 mmHg 74%
23:00 +7°C° 0 mm 1 mps 733 mmHg 75%

12 August, Wednesday

Time Temperature Precipitation Wind Pressure Humidity
00:00 +6°C° 0 mm 1 mps 733 mmHg 76%
01:00 +6°C° 0 mm 1 mps 733 mmHg 76%
02:00 +6°C° 0 mm 1 mps 733 mmHg 77%
03:00 +6°C° 0 mm 1 mps 733 mmHg 78%
04:00 +5°C° 0 mm 1 mps 732 mmHg 78%
05:00 +6°C° 0 mm 1 mps 733 mmHg 78%
06:00 +6°C° 0 mm 1 mps 733 mmHg 77%
07:00 +6°C° 0 mm 1 mps 733 mmHg 77%
08:00 +7°C° 0 mm 1 mps 733 mmHg 73%
09:00 +9°C° 0 mm 1 mps 733 mmHg 69%
10:00 +9°C° 0 mm 2 mps 733 mmHg 66%
11:00 +10°C° 0 mm 2 mps 733 mmHg 64%
12:00 +12°C° 0 mm 2 mps 733 mmHg 62%
13:00 +13°C° 0 mm 2 mps 733 mmHg 60%
14:00 +13°C° 0 mm 2 mps 733 mmHg 64%
15:00 +12°C° 0 mm 2 mps 733 mmHg 68%
16:00 +12°C° 0 mm 2 mps 733 mmHg 73%
17:00 +10°C° 0 mm 1 mps 734 mmHg 76%
18:00 +9°C° 0 mm 1 mps 734 mmHg 79%
19:00 +6°C° 0 mm 0 mps 735 mmHg 83%
20:00 +7°C° 0 mm 1 mps 735 mmHg 81%
21:00 +7°C° 0 mm 1 mps 735 mmHg 80%
22:00 +7°C° 0 mm 1 mps 735 mmHg 78%
23:00 +7°C° 0 mm 1 mps 735 mmHg 78%

13 August, Thursday

Time Temperature Precipitation Wind Pressure Humidity
00:00 +7°C° 0 mm 1 mps 735 mmHg 77%
01:00 +7°C° 0 mm 1 mps 735 mmHg 77%
02:00 +6°C° 0 mm 1 mps 735 mmHg 76%
03:00 +6°C° 0 mm 1 mps 735 mmHg 76%
04:00 +6°C° 0 mm 1 mps 734 mmHg 75%
05:00 +6°C° 0 mm 1 mps 734 mmHg 75%
06:00 +6°C° 0 mm 1 mps 734 mmHg 74%
07:00 +6°C° 0 mm 1 mps 734 mmHg 73%
08:00 +9°C° 0 mm 1 mps 734 mmHg 68%
09:00 +11°C° 0 mm 1 mps 734 mmHg 63%
10:00 +13°C° 0 mm 2 mps 734 mmHg 57%
11:00 +14°C° 0 mm 2 mps 733 mmHg 56%
12:00 +15°C° 0 mm 2 mps 733 mmHg 54%
13:00 +16°C° 0 mm 2 mps 732 mmHg 53%
14:00 +15°C° 0 mm 2 mps 732 mmHg 58%
15:00 +14°C° 0 mm 2 mps 732 mmHg 62%
16:00 +14°C° 0 mm 2 mps 732 mmHg 67%
17:00 +12°C° 0 mm 1 mps 733 mmHg 71%
18:00 +10°C° 0 mm 1 mps 733 mmHg 76%
19:00 +8°C° 0 mm 1 mps 733 mmHg 80%
20:00 +8°C° 0 mm 1 mps 733 mmHg 80%
21:00 +8°C° 0 mm 1 mps 733 mmHg 79%
22:00 +8°C° 0 mm 1 mps 733 mmHg 79%
23:00 +7°C° 0 mm 1 mps 733 mmHg 78%
Show more